Location: Newark
(7.0858°N, 171.3717°E)
Time: 07:29:24
(UTC+00:00)

Courier 1B - Pass Details

Date: 03 December 2020
Orbit: 962 x 1209 km, 28.3° (Epoch: 20 January)

Event Time Altitude Azimuth Distance (km) Brightness Sun altitude
Rises 04:24:20 0° 224° (SW) 3,748 11.8 24.4°
Reaches altitude 10° 04:27:17 10° 215° (SW) 2,763 11.1 23.8°
Maximum altitude 04:33:20 37° 150° (SSE) 1,469 8.7 22.4°
Drops below altitude 10° 04:39:13 10° 84° (E) 2,685 9.3 21.1°
Sets 04:42:02 0° 76° (ENE) 3,629 9.9 20.5°
